CW6596 Weather Reports


Display with metric or nautical units.
time (UTC)temp
F
wind
direction
speed
MPH
gust
MPH
rain 1hr
in
rain 24hr
in
rain mn
in
humidity
%
barometer
mb
20260505140106 54 210 11.0 17.0 0.00 0.00 0.00 82 1009.1
20260505124553 54 226 5.0 10.0 0.00 0.00 0.00 81 1009.2
20260505123050 53 209 7.0 16.0 0.00 0.00 0.00 82 1009.2
20260505121547 53 203 7.0 14.0 0.00 0.00 0.00 82 1009.4
20260505120044 52 207 4.0 11.0 0.00 0.00 0.00 83 1009.3
20260505114546 51 230 4.0 11.0 0.00 0.00 0.00 84 1009.3
20260505113040 51 207 3.0 11.0 0.00 0.00 0.00 84 1009.2
20260505111550 50 183 5.0 9.0 0.00 0.00 0.00 85 1008.9
20260505101532 48 158 6.0 9.0 0.00 0.00 0.00 87 1009.0
20260505100041 48 183 4.0 7.0 0.00 0.00 0.00 87 1009.0
20260505094530 47 185 3.0 6.0 0.00 0.00 0.00 88 1008.9
20260505093029 46 253 1.0 2.0 0.00 0.00 0.00 88 1008.7
20260505091527 47 253 1.0 5.0 0.00 0.00 0.00 87 1008.8
20260505090047 47 259 3.0 6.0 0.00 0.00 0.00 86 1008.8
20260505084534 48 270 4.0 9.0 0.00 0.00 0.00 86 1008.7
20260505083035 48 228 5.0 9.0 0.00 0.00 0.00 86 1008.8
20260505081536 48 282 5.0 10.0 0.00 0.00 0.00 85 1008.6
20260505080035 48 264 4.0 8.0 0.00 0.00 0.00 85 1008.6
20260505074521 48 258 4.0 8.0 0.00 0.00 0.00 86 1008.6
20260505073020 48 321 4.0 9.0 0.00 0.00 0.00 86 1008.6
20260505071525 47 260 4.0 6.0 0.00 0.00 0.00 85 1008.6
20260505070020 48 248 4.0 7.0 0.00 0.00 0.00 85 1008.6
20260505064516 48 262 5.0 8.0 0.00 0.00 0.00 84 1008.5
20260505063016 49 260 5.0 11.0 0.00 0.00 0.00 82 1008.5
20260505061525 49 281 3.0 12.0 0.00 0.00 0.00 83 1008.5
20260505060013 48 247 5.0 11.0 0.00 0.00 0.00 85 1008.3
20260505054520 46 248 2.0 7.0 0.00 0.00 0.00 86 1008.4
20260505053011 48 220 2.0 9.0 0.00 0.00 0.00 84 1008.1
20260505051508 48 241 2.0 7.0 0.00 0.00 0.00 84 1008.1
20260505041503 49 228 3.0 9.0 0.00 0.00 0.00 84 1008.0
20260505040000 48 219 2.0 5.0 0.00 0.00 0.00 84 1008.0
20260505034600 48 222 2.0 6.0 0.00 0.00 0.00 84 1008.0
20260505033100 48 245 2.0 5.0 0.00 0.00 0.00 83 1007.9
20260505031613 49 239 2.0 6.0 0.00 0.00 0.00 82 1007.7
20260505030058 49 243 3.0 6.0 0.00 0.00 0.00 82 1007.8
20260505024610 49 255 3.0 7.0 0.00 0.00 0.00 81 1007.9
20260505023057 50 271 5.0 8.0 0.00 0.00 0.00 80 1007.7
20260505021611 50 216 4.0 12.0 0.00 0.00 0.00 80 1007.7
20260505020055 49 225 5.0 11.0 0.00 0.00 0.00 80 1007.7
20260505014555 49 235 4.0 8.0 0.00 0.00 0.00 81 1007.6
20260505013056 48 214 4.0 9.0 0.00 0.00 0.00 82 1007.5
20260505011557 48 221 4.0 9.0 0.00 0.00 0.00 82 1007.3
20260505010052 48 210 4.0 10.0 0.00 0.00 0.00 82 1007.1
20260505004552 47 229 5.0 8.0 0.00 0.00 0.00 85 1007.1
20260505003152 48 206 3.0 7.0 0.00 0.00 0.00 82 1007.0
20260505001551 49 189 4.0 8.0 0.00 0.00 0.00 80 1006.8
20260505000050 49 177 6.0 11.0 0.00 0.00 0.00 79 1006.5
20260504234550 49 169 4.0 9.0 0.00 0.00 0.00 79 1006.3
20260504233058 50 174 5.0 7.0 0.00 0.00 0.00 78 1006.0
20260504231549 52 181 5.0 10.0 0.00 0.00 0.00 75 1005.8
20260504230048 54 187 1.0 5.0 0.00 0.00 0.00 73 1005.6
20260504224548 55 168 2.0 7.0 0.00 0.00 0.00 72 1005.4
20260504223054 56 172 4.0 6.0 0.00 0.00 0.00 70 1005.4
20260504221551 57 159 3.0 7.0 0.00 0.00 0.00 68 1005.4
20260504220104 58 197 2.0 6.0 0.00 0.00 0.00 66 1005.3
20260504214546 59 208 3.0 7.0 0.00 0.00 0.00 66 1005.1
20260504213055 60 197 2.0 8.0 0.00 0.00 0.00 62 1005.0
20260504211545 59 170 3.0 9.0 0.00 0.00 0.00 62 1005.2
20260504210047 60 178 2.0 10.0 0.00 0.00 0.00 61 1005.1
20260504204559 60 216 5.0 11.0 0.00 0.00 0.00 59 1004.9
20260504203044 59 192 4.0 10.0 0.00 0.00 0.00 58 1004.8
20260504201543 60 224 3.0 10.0 0.00 0.00 0.00 60 1004.9
20260504200044 59 189 6.0 9.0 0.00 0.02 0.00 65 1004.9
20260504194544 59 245 5.0 9.0 0.00 0.02 0.00 64 1004.9
20260504193038 58 182 6.0 9.0 0.00 0.02 0.00 66 1005.0
20260504191540 57 241 6.0 13.0 0.00 0.02 0.00 65 1005.3
20260504190038 56 245 5.0 13.0 0.00 0.06 0.00 66 1005.6
20260504184536 57 240 9.0 14.0 0.00 0.06 0.00 65 1005.7
20260504183033 54 245 6.0 15.0 0.00 0.06 0.00 67 1005.9
20260504181531 54 243 8.0 17.0 0.00 0.06 0.00 66 1005.7
20260504180031 54 233 7.0 17.0 0.00 0.14 0.00 66 1005.5
20260504174530 55 244 11.0 22.0 0.00 0.14 0.00 64 1005.2
20260504173030 54 211 8.0 18.0 0.00 0.14 0.00 66 1005.1
20260504171529 54 241 3.0 20.0 0.00 0.14 0.00 66 1005.2
20260504170127 53 187 9.0 17.0 0.00 0.14 0.00 69 1005.2